[[{"header":{"parameterUnit":"m.s-1","parameterCategory":1,"la1":30.2991,"la2":30.254,"lo1":-89.0895,"lo2":-89.0444,"dy":0.0017,"dx":0.0017,"nx":28,"ny":28,"refTime":"2025-01-28T03:00:00:Z","depth":0,"parameterNumber":2,"parameterNumberName":"U-component_of_WINDS"},"data":[0,0,0,0,0,0,0,0,0,0,0,0,0,0,0,0,0,0,0,0,0,0,0,0,0,0,0,0,0,0,0,0,0,0,0,0,0,0,0,0,0,0,0,0,0,0,0,0,0,0,0,0,0,0,0,0,0,0,-0.5266,-0.5267,0,-0.5384,-0.5385,-0.5387,-0.5413,-0.5412,-0.5411,-0.541,-0.5534,-0.5538,-0.5542,0,0,0,0,0,0,0,0,0,0,0,0,0,-0.5064,-0.5067,-0.5266,-0.5267,-0.5269,-0.5384,-0.5385,-0.5387,-0.5413,-0.5412,-0.5411,-0.541,-0.5532,-0.5537,-0.5542,0,0,0,0,0,0,0,0,0,0,0,0,0,-0.5164,-0.5069,-0.5265,-0.5295,-0.5299,-0.5383,-0.5385,-0.5387,-0.5413,-0.5412,-0.5411,-0.5409,-0.5531,-0.5537,-0.5543,-0.5606,0,0,-0.5561,-0.5564,0,0,0,0,0,0,0,0,-0.5158,-0.5171,-0.529,-0.5294,-0.5298,-0.5382,-0.5359,-0.5461,-0.5413,-0.537,-0.541,-0.5409,-0.5484,-0.5494,-0.5519,-0.5612,-0.5617,-0.5562,-0.5566,-0.5568,-0.557,0,0,0,0,0,0,0,-0.5151,-0.5166,-0.5313,-0.5291,-0.5296,-0.5303,-0.5316,-0.5379,-0.5433,-0.5374,-0.5376,-0.5389,-0.5487,-0.5513,-0.5522,-0.5619,-0.5562,-0.5567,-0.5571,-0.5573,-0.5769,-0.577,0,0,0,0,0,0,-0.5139,-0.516,-0.5309,-0.5316,-0.5223,-0.5308,-0.5322,-0.5357,-0.5432,-0.5443,-0.539,-0.539,-0.5504,-0.5515,-0.5527,-0.5606,-0.5568,-0.5574,-0.5578,-0.5767,-0.5769,-0.5771,0,0,0,0,0,0,-0.5134,-0.5152,-0.5304,-0.5239,-0.5259,-0.5313,-0.5351,-0.536,-0.5386,-0.5445,-0.5455,-0.5408,-0.5503,-0.5518,-0.5586,-0.5611,-0.5577,-0.5582,-0.5765,-0.5768,-0.577,-0.5765,0,0,0,0,0,0,-0.5128,-0.515,-0.5175,-0.5239,-0.5262,-0.5361,-0.5353,-0.5363,-0.5397,-0.5398,-0.5464,-0.5474,-0.5503,-0.5577,-0.5592,-0.5619,-0.5587,-0.5764,-0.5766,-0.5769,-0.5763,-0.5767,-0.577,0,0,0,0,0,-0.5121,-0.5169,-0.5176,-0.5193,-0.5294,-0.5362,-0.5375,-0.5408,-0.5398,-0.5424,-0.5461,-0.5472,-0.5605,-0.5583,-0.5601,-0.563,-0.5762,-0.5766,-0.5769,-0.5762,-0.5766,-0.577,0,0,0,0,0,0,-0.5108,-0.5178,-0.5186,-0.5257,-0.5303,-0.5366,-0.54,-0.5411,-0.5462,-0.5461,-0.5499,-0.5514,-0.5579,-0.5611,-0.5586,-0.5695,-0.5683,-0.569,-0.5672,-0.5676,-0.568,-0.5671,-0.5592,0,0,0,0,0,-0.5112,-0.5161,-0.5221,-0.5277,-0.53,-0.5345,-0.5376,-0.5397,-0.5447,-0.5467,-0.551,-0.5558,-0.5611,-0.5645,-0.5697,-0.5767,-0.5782,-0.5795,-0.5799,-0.5801,-0.5807,-0.5846,-0.5853,-0.5782,-0.5782,-0.5782,0,0,-0.5124,-0.5168,-0.5197,-0.5276,-0.5314,-0.5364,-0.5362,-0.5416,-0.5453,-0.5476,-0.5542,-0.5574,-0.5631,-0.57,-0.5733,-0.5729,-0.583,-0.5806,-0.5807,-0.5812,-0.5851,-0.5857,-0.5863,-0.5784,-0.5784,-0.5783,0,0,-0.5171,-0.5209,-0.526,-0.5298,-0.5355,-0.5385,-0.5397,-0.5458,-0.548,-0.5547,-0.5564,-0.561,-0.57,-0.574,-0.5772,-0.583,-0.5842,-0.5846,-0.5864,-0.5902,-0.5908,-0.5913,-0.5934,-0.5941,-0.5852,-0.5852,-0.5852,0,-0.5178,-0.5254,-0.5285,-0.5337,-0.5371,-0.5391,-0.5443,-0.5479,-0.5551,-0.5574,-0.5568,-0.5681,-0.572,-0.5799,-0.5813,-0.5838,-0.5853,-0.584,-0.5904,-0.591,-0.5915,-0.5936,-0.5944,-0.5852,-0.5852,-0.5852,-0.5852,0,-0.526,-0.5312,-0.5346,-0.5414,-0.5451,-0.5503,-0.5542,-0.5577,-0.5593,-0.5623,-0.569,-0.5738,-0.58,-0.5819,-0.5837,-0.59,-0.5896,-0.5896,-0.5886,-0.5921,-0.5942,-0.595,-0.5852,-0.5852,-0.5852,-0.5852,0,0,-0.5304,-0.5386,-0.5398,-0.5429,-0.5492,-0.5534,-0.5586,-0.5645,-0.5674,-0.5722,-0.5767,-0.5842,-0.5842,-0.5878,-0.59,-0.5933,-0.5976,-0.5929,-0.5931,-0.5937,-0.6049,-0.6049,-0.6058,-0.5983,-0.5985,-0.5986,-0.6044,0,-0.5359,-0.5453,-0.5481,-0.556,-0.5609,-0.5628,-0.5673,-0.5717,-0.5746,-0.5792,-0.5824,-0.5876,-0.5873,-0.5895,-0.5928,-0.5964,-0.5999,-0.596,-0.6027,-0.6029,-0.6013,-0.6068,-0.6069,-0.6122,-0.6052,-0.6054,-0.6055,0,-0.5437,-0.5485,-0.5568,-0.5624,-0.5646,-0.5686,-0.5742,-0.5785,-0.5835,-0.5854,-0.5893,-0.5911,-0.5966,-0.5951,-0.6028,-0.6001,-0.6029,-0.6051,-0.6054,-0.6063,-0.6045,-0.608,-0.6139,-0.6148,-0.6068,-0.6067,-0.6066,0,-0.5461,-0.5547,-0.5607,-0.5633,-0.57,-0.5728,-0.5757,-0.5806,-0.5839,-0.5887,-0.5909,-0.5964,-0.5994,-0.6036,-0.6069,-0.6054,-0.6143,-0.613,-0.6161,-0.616,-0.618,-0.6179,-0.6246,-0.6196,-0.6196,-0.6196,-0.6196,0,-0.5521,-0.5571,-0.5619,-0.5657,-0.5714,-0.5745,-0.5801,-0.5831,-0.5873,-0.5917,-0.5937,-0.5978,-0.6017,-0.6063,-0.6089,-0.6149,-0.6162,-0.6179,-0.6186,-0.6178,-0.6176,-0.6199,-0.6197,-0.6198,-0.6198,-0.6197,-0.6197,0,-0.5559,-0.5593,-0.5661,-0.5717,-0.5733,-0.5772,-0.5821,-0.5858,-0.5887,-0.5942,-0.5957,-0.6002,-0.6057,-0.6093,-0.6164,-0.6181,-0.6246,-0.6251,-0.6229,-0.6233,-0.6261,-0.6258,-0.6347,-0.636,-0.63,-0.63,-0.6301,0,-0.5596,-0.5635,-0.5695,-0.5725,-0.5754,-0.5803,-0.5836,-0.5868,-0.5902,-0.5961,-0.5991,-0.6047,-0.6094,-0.618,-0.622,-0.6274,-0.6281,-0.6308,-0.6289,-0.628,-0.6282,-0.628,-0.6284,-0.6312,-0.6312,-0.6313,-0.6313,0,-0.5657,-0.5671,-0.5718,-0.5771,-0.581,-0.5853,-0.5896,-0.592,-0.5959,-0.5996,-0.6052,-0.6088,-0.6159,-0.6215,-0.6271,-0.6302,-0.6315,-0.6318,-0.6328,-0.6322,-0.6308,-0.6317,-0.6239,-0.6317,-0.6316,-0.6316,-0.6316,-0.6316,-0.5697,-0.5732,-0.5779,-0.5831,-0.5866,-0.5905,-0.5943,-0.5975,-0.6022,-0.6081,-0.6097,-0.6155,-0.6203,-0.6281,-0.6312,-0.6358,-0.6355,-0.637,-0.6373,-0.6377,-0.6377,-0.6299,-0.6369,-0.6369,-0.6368,-0.6368,-0.6368,0,-0.576,-0.579,-0.5837,-0.5896,-0.5936,-0.5942,-0.599,-0.6023,-0.6074,-0.6117,-0.6162,-0.6225,-0.6279,-0.6321,-0.6376,-0.6405,-0.6412,-0.6418,-0.6417,-0.6424,-0.6377,-0.6363,-0.6412,-0.6412,-0.6412,-0.6412,-0.6412,-0.6412,-0.5797,-0.5857,-0.5876,-0.5954,-0.5984,-0.6041,-0.6067,-0.6104,-0.6138,-0.6208,-0.6252,-0.6278,-0.6321,-0.6379,-0.6428,-0.6439,-0.6459,-0.6464,-0.6477,-0.6432,-0.6428,-0.6423,-0.641,-0.6468,-0.6468,-0.6521,-0.6521,-0.6522]},{"header":{"parameterUnit":"m.s-1","parameterCategory":1,"la1":30.2991,"la2":30.254,"lo1":-89.0895,"lo2":-89.0444,"dy":0.0017,"dx":0.0017,"nx":28,"ny":28,"refTime":"2025-01-28T03:00:00:Z","depth":0,"parameterNumber":3,"parameterNumberName":"V-component_of_WINDS"},"data":[0,0,0,0,0,0,0,0,0,0,0,0,0,0,0,0,0,0,0,0,0,0,0,0,0,0,0,0,0,0,0,0,0,0,0,0,0,0,0,0,0,0,0,0,0,0,0,0,0,0,0,0,0,0,0,0,0,0,-2.6389,-2.6389,0,-2.6447,-2.6448,-2.6448,-2.6442,-2.6441,-2.644,-2.6439,-2.6496,-2.6498,-2.65,0,0,0,0,0,0,0,0,0,0,0,0,0,-2.6268,-2.627,-2.6388,-2.6389,-2.639,-2.6447,-2.6448,-2.6448,-2.6442,-2.6441,-2.6439,-2.6438,-2.6495,-2.6498,-2.65,0,0,0,0,0,0,0,0,0,0,0,0,0,-2.6322,-2.6271,-2.6388,-2.6394,-2.6395,-2.6447,-2.6448,-2.6449,-2.6442,-2.6441,-2.6439,-2.6438,-2.6494,-2.6497,-2.6501,-2.655,0,0,-2.6512,-2.6513,0,0,0,0,0,0,0,0,-2.6319,-2.6327,-2.6392,-2.6393,-2.6395,-2.6436,-2.6426,-2.6483,-2.6442,-2.6424,-2.6439,-2.6437,-2.6476,-2.6481,-2.6495,-2.6553,-2.6555,-2.6512,-2.6514,-2.6516,-2.6517,0,0,0,0,0,0,0,-2.6316,-2.6324,-2.6411,-2.6393,-2.6395,-2.6392,-2.6398,-2.6436,-2.6457,-2.6425,-2.6425,-2.6432,-2.6477,-2.6492,-2.6497,-2.6556,-2.6512,-2.6515,-2.6517,-2.6519,-2.6657,-2.6658,0,0,0,0,0,0,-2.6311,-2.6321,-2.641,-2.6413,-2.6353,-2.6395,-2.6402,-2.6424,-2.6457,-2.646,-2.6433,-2.6432,-2.6486,-2.6492,-2.6498,-2.6558,-2.6516,-2.6519,-2.6521,-2.6655,-2.6657,-2.6659,0,0,0,0,0,0,-2.6308,-2.6319,-2.6407,-2.6367,-2.6378,-2.6399,-2.6423,-2.6426,-2.6441,-2.6463,-2.6466,-2.6445,-2.6486,-2.6493,-2.6538,-2.656,-2.6521,-2.6524,-2.6653,-2.6656,-2.6658,-2.6679,0,0,0,0,0,0,-2.6305,-2.6318,-2.6338,-2.6368,-2.638,-2.6447,-2.6424,-2.6428,-2.6447,-2.6446,-2.6475,-2.6478,-2.6485,-2.6532,-2.6541,-2.6565,-2.6527,-2.6652,-2.6655,-2.6657,-2.6676,-2.6682,-2.6686,0,0,0,0,0,-2.6301,-2.6341,-2.6339,-2.635,-2.6406,-2.6448,-2.6455,-2.6463,-2.6449,-2.6469,-2.6483,-2.6477,-2.6556,-2.6537,-2.6547,-2.6572,-2.665,-2.6654,-2.6657,-2.6674,-2.6681,-2.6686,0,0,0,0,0,0,-2.6313,-2.6345,-2.6343,-2.6395,-2.6419,-2.6447,-2.6472,-2.647,-2.6498,-2.6495,-2.6503,-2.6509,-2.6554,-2.6567,-2.6545,-2.6621,-2.6601,-2.6607,-2.6611,-2.6617,-2.6622,-2.6618,-2.6529,0,0,0,0,0,-2.6322,-2.6354,-2.638,-2.6423,-2.6435,-2.6451,-2.647,-2.6474,-2.6499,-2.6509,-2.6526,-2.6549,-2.6579,-2.6599,-2.6628,-2.6678,-2.6684,-2.67,-2.6705,-2.6709,-2.6714,-2.674,-2.6748,-2.667,-2.667,-2.667,0,0,-2.634,-2.6361,-2.6381,-2.6426,-2.6445,-2.6477,-2.646,-2.6495,-2.6519,-2.6514,-2.6557,-2.657,-2.6596,-2.6644,-2.6665,-2.6656,-2.6736,-2.6713,-2.6716,-2.6719,-2.6745,-2.6752,-2.6758,-2.6673,-2.6672,-2.6672,0,0,-2.6389,-2.6409,-2.6447,-2.6467,-2.6496,-2.6507,-2.6515,-2.6544,-2.6553,-2.6596,-2.6593,-2.6621,-2.6672,-2.6691,-2.6708,-2.6764,-2.6759,-2.6773,-2.6799,-2.6825,-2.6831,-2.6836,-2.6856,-2.6863,-2.6777,-2.6777,-2.6777,0,-2.6408,-2.6458,-2.6466,-2.6502,-2.6521,-2.6519,-2.6556,-2.6575,-2.6611,-2.6624,-2.6613,-2.6678,-2.6696,-2.6747,-2.6761,-2.6774,-2.6784,-2.677,-2.683,-2.6835,-2.684,-2.6859,-2.6866,-2.6779,-2.6779,-2.6778,-2.6778,0,-2.6479,-2.6513,-2.654,-2.6577,-2.6599,-2.6635,-2.6648,-2.6669,-2.6671,-2.6682,-2.6726,-2.6747,-2.678,-2.6792,-2.6794,-2.6844,-2.6837,-2.6828,-2.6808,-2.6849,-2.6867,-2.6874,-2.6781,-2.678,-2.678,-2.678,0,0,-2.6539,-2.6579,-2.6589,-2.6605,-2.6637,-2.6663,-2.6699,-2.6732,-2.675,-2.6775,-2.6804,-2.6848,-2.6839,-2.6858,-2.6862,-2.6885,-2.6927,-2.6872,-2.6873,-2.6882,-2.6982,-2.6989,-2.6997,-2.6924,-2.6926,-2.6927,-2.698,0,-2.6592,-2.6656,-2.6664,-2.6721,-2.6752,-2.675,-2.678,-2.6803,-2.6814,-2.6841,-2.6853,-2.6884,-2.687,-2.6881,-2.6904,-2.6917,-2.6947,-2.6913,-2.6951,-2.6952,-2.6944,-2.7006,-2.7014,-2.7063,-2.6987,-2.6988,-2.6989,0,-2.6662,-2.669,-2.675,-2.6777,-2.679,-2.6818,-2.6849,-2.6875,-2.6899,-2.6906,-2.6926,-2.6927,-2.6963,-2.6942,-2.699,-2.6967,-2.6982,-2.6991,-2.6993,-2.6997,-2.6973,-2.7012,-2.7079,-2.7086,-2.7,-2.6999,-2.6998,0,-2.6699,-2.6752,-2.6794,-2.6808,-2.6841,-2.686,-2.6874,-2.6898,-2.6917,-2.6943,-2.6955,-2.6985,-2.7001,-2.7023,-2.7032,-2.7016,-2.708,-2.7059,-2.7085,-2.7085,-2.7099,-2.7098,-2.7169,-2.7109,-2.7109,-2.7109,-2.7109,0,-2.6757,-2.6794,-2.6811,-2.6838,-2.6878,-2.6887,-2.6926,-2.6939,-2.696,-2.6988,-2.6987,-2.7013,-2.7022,-2.7049,-2.7056,-2.7094,-2.7102,-2.7107,-2.7108,-2.7107,-2.7107,-2.7118,-2.7114,-2.7111,-2.711,-2.711,-2.7109,0,-2.6806,-2.6819,-2.6865,-2.6893,-2.69,-2.6929,-2.6951,-2.6976,-2.6986,-2.7021,-2.703,-2.7046,-2.7078,-2.7089,-2.7127,-2.7131,-2.7176,-2.7174,-2.7168,-2.7168,-2.7193,-2.7191,-2.7274,-2.7286,-2.7218,-2.7219,-2.7219,0,-2.6843,-2.6871,-2.6901,-2.692,-2.6935,-2.6966,-2.6985,-2.6994,-2.7014,-2.7044,-2.7065,-2.7096,-2.7122,-2.7173,-2.7187,-2.7216,-2.7215,-2.7242,-2.7219,-2.7217,-2.7215,-2.7213,-2.7216,-2.7246,-2.7247,-2.7248,-2.7248,0,-2.6906,-2.6911,-2.6939,-2.697,-2.6994,-2.7018,-2.7042,-2.7057,-2.7069,-2.7092,-2.7125,-2.7145,-2.7184,-2.7215,-2.7244,-2.7257,-2.7255,-2.7255,-2.7263,-2.7262,-2.7257,-2.726,-2.718,-2.7253,-2.7253,-2.7252,-2.7252,-2.7252,-2.6949,-2.6974,-2.6999,-2.7031,-2.705,-2.7072,-2.7096,-2.711,-2.7138,-2.7171,-2.7174,-2.7209,-2.7231,-2.7271,-2.7285,-2.7312,-2.7304,-2.7315,-2.7318,-2.7321,-2.7322,-2.7253,-2.7318,-2.7317,-2.7317,-2.7317,-2.7317,0,-2.7012,-2.7028,-2.7057,-2.7091,-2.7115,-2.7111,-2.7137,-2.7157,-2.7189,-2.7211,-2.7236,-2.7273,-2.7303,-2.732,-2.7349,-2.7367,-2.7367,-2.7375,-2.7374,-2.7377,-2.7328,-2.7318,-2.7375,-2.7375,-2.7375,-2.7375,-2.7375,-2.7375,-2.7048,-2.7089,-2.7097,-2.7147,-2.7163,-2.7198,-2.7213,-2.7232,-2.725,-2.7292,-2.7317,-2.7328,-2.7347,-2.7378,-2.7405,-2.7409,-2.742,-2.7429,-2.7432,-2.7386,-2.738,-2.7374,-2.7366,-2.7431,-2.7431,-2.7478,-2.7478,-2.7479]}]]